Location: Saint Anthony Catholic Church
(38.1218°N, 99.7101°W)
Time: 02:04:31
(UTC+00:00)

Daily predictions for brighter satellites

Satellite Brightness Start Highest point End
(mag) Time Altitude Azimuth Time Altitude Azimuth Time Altitude Azimuth
Nadezhda 3 Rocket 4.1 00:56:11 10° N 01:02:36 80° E 01:08:56 10° S
USA 234 4.5 00:58:29 10° ENE 01:03:12 21° ESE 01:07:53 10° SSE
SKYMED 2 4.2 00:59:19 10° N 01:03:36 61° WNW 01:07:52 10° SSW
CZ-2C R/B 3.3 00:59:21 10° NNE 01:04:09 32° E 01:08:47 10° SSE
Meteor 1-19 Rocket 4.5 01:00:29 10° N 01:06:21 82° W 01:11:59 10° S
Cosmos 2154 Rocket 4.4 01:02:40 10° SSW 01:08:50 72° W 01:15:02 10° N
Aureole 2 Rocket 3.9 01:07:24 10° NW 01:09:35 28° WSW 01:11:45 10° SSW
COSMOS 2428 3.0 01:04:14 10° S 01:09:38 48° ESE 01:15:05 10° NE
Cosmos 1703 Rocket 3.8 01:10:02 10° N 01:14:16 47° E 01:18:26 10° SSE
Cosmos 1933 Rocket 3.7 01:12:01 10° S 01:16:22 78° W 01:20:45 10° N
Okean-O 2.7 01:12:22 10° SSE 01:16:41 56° ENE 01:21:02 10° N
Cosmos 1500 4.0 01:14:35 10° SSW 01:18:14 54° W 01:21:54 10° N
Abrixas rocket 3.7 01:24:26 10° NNW 01:26:02 15° NNE 01:27:11 12° NE
CZ-2C R/B 4.3 01:20:45 10° S 01:26:15 50° W 01:31:34 10° NNW
NOSS 0 Rocket 4.4 01:23:32 10° S 01:29:03 36° ESE 01:34:35 10° NE
NOSS 3-2 (A) 3.4 01:24:05 10° SSW 01:29:20 53° ESE 01:35:14 10° NE
SL-8 Rocket 4.0 01:23:14 10° S 01:29:23 65° E 01:35:30 10° NNE
CSL-04 Rocket 3.9 01:24:14 10° SE 01:29:31 48° ENE 01:34:47 10° N
Cosmos 2322 4.0 01:24:29 10° SSW 01:30:11 73° WNW 01:35:55 10° NNE
ASTEX 1 4.4 01:28:21 10° NE 01:32:16 24° E 01:36:11 10° SE
SAR-Lupe-4 3.4 01:28:46 10° NNE 01:32:22 78° ESE 01:35:56 10° S
Cosmos 1544 4.4 01:29:54 10° SE 01:32:27 18° E 01:35:02 10° NE
H-2A R/B 2.3 01:27:11 10° SSE 01:32:38 83° WSW 01:38:06 10° NNW
Cosmos 1777 Rocket 4.0 01:29:53 10° N 01:35:04 60° ENE 01:40:11 10° SSE
YAOGAN 1 2.7 01:31:35 10° S 01:35:54 81° WSW 01:40:15 10° NNW
PSLV R/B 4.3 01:32:09 10° N 01:36:11 67° WNW 01:40:11 10° SSW
Cosmos 1844 Rocket 3.2 01:30:42 10° NNW 01:36:12 64° WSW 01:41:42 10° S
Okean 1-7 2.9 01:32:49 10° N 01:37:10 84° E 01:41:28 10° S
CSL-04 Debris 4.2 01:32:06 10° SSE 01:37:27 62° ENE 01:42:51 10° N
Ariane Rocket 4.4 01:36:19 16° E 01:37:54 19° ENE 01:41:20 10° NNE
SJ-11-01 4.4 01:33:15 10° S 01:37:55 83° WSW 01:42:39 10° NNW
CENTAUR R/B 2.7 01:34:57 10° S 01:40:07 41° ESE 01:46:08 10° NE
Cosmos 1536 2.9 01:36:34 10° S 01:40:25 50° E 01:44:17 10° NNE
SL-4 R/B 2.0 01:40:26 10° NW 01:43:49 45° NE 01:45:20 26° E
SWAS 4.4 01:40:49 10° SSW 01:45:06 83° ESE 01:49:25 10° NNE
SJ 16-02 2.3 01:42:24 10° N 01:46:10 27° ENE 01:47:30 23° E
Cosmos 1339 Rocket 4.4 01:40:25 10° N 01:46:41 76° E 01:53:01 10° S
Cosmos 2366 rocket 4.0 01:41:30 10° S 01:47:47 74° E 01:54:08 10° N
Okean 3 3.6 01:44:51 10° N 01:49:03 53° E 01:53:14 10° SSE
Meteor 1-11 Rocket 3.7 01:47:19 10° S 01:53:02 85° E 01:58:38 10° N
FALCON 9 DEB 4.4 01:54:50 10° NNW 01:57:25 23° NNE 01:57:30 23° NE
Cosmos 1689 Rocket 4.2 01:54:51 10° N 01:57:25 29° WNW 01:59:58 10° SW
Helios 1A Rocket 2.9 01:53:58 10° S 01:58:00 81° WSW 02:02:03 10° NNW
Lacrosse 4 Rocket 3.5 01:57:13 10° WSW 02:01:04 30° NW 02:05:01 10° N
Cosmos 2237 Rocket 2.4 01:55:50 10° S 02:01:14 47° ESE 02:06:41 10° NE
DMSP B5D2-2 3.9 01:58:53 10° NNE 02:04:06 75° ESE 02:09:18 10° S
GP-B 4.2 02:02:07 10° SSW 02:06:22 46° W 02:10:39 10° NNW
SeaSat 1 2.4 02:01:32 10° NNE 02:06:30 88° WNW 02:11:25 10° SSW
CZ-4 R/B 3.6 02:03:33 10° SSW 02:06:48 26° W 02:10:06 10° NW
Meteor 1-13 Rocket 4.4 02:01:17 10° N 02:07:13 82° W 02:12:59 10° S
Cosmos 2278 Rocket 2.7 02:02:49 10° N 02:08:09 40° ENE 02:09:47 33° E
BREEZE-M DEB (TANK) 4.0 02:05:01 10° W 02:08:50 24° NNW 02:10:28 15° NNE
ERS-2 4.2 02:06:20 10° N 02:09:33 30° WNW 02:12:45 10° SW
NOSS 3-2 (C) 3.2 02:05:53 10° SSW 02:11:15 64° ESE 02:17:18 10° NE
Cosmos 1821 Rocket 4.1 02:06:03 10° SSE 02:11:58 47° E 02:17:50 10° NNE
MetOp-A 4.1 02:08:16 14° SSE 02:12:55 64° ENE 02:18:13 10° N
Cosmos 1378 2.9 02:10:44 10° N 02:14:27 86° E 02:16:11 30° S
Hubble Space Telescope 2.4 02:12:37 10° SW 02:15:45 21° S 02:16:12 21° S
Lacrosse 5 3.5 02:13:29 10° S 02:15:17 18° SSE 02:15:17 18° SSE
Cosmos 1727 Rocket 3.9 02:12:18 10° N 02:18:30 72° E 02:24:42 10° SSE
Cosmos 2333 Rocket 4.1 02:17:41 10° WSW 02:22:39 31° WNW 02:27:41 10° N
DELTA 2 R/B (1) 3.6 02:22:32 10° W 02:28:06 77° N 02:29:41 48° ENE
Cosmos 1238 Rocket 3.6 02:24:15 10° SSW 02:28:28 51° W 02:32:00 10° N
Cosmos 1733 Rocket 2.8 02:24:22 10° S 02:28:40 82° E 02:33:03 10° N
Meteor 2-20 Rocket 4.4 02:26:04 10° N 02:32:07 60° E 02:33:57 43° SE
Cosmos 1743 2.9 02:29:22 10° SSW 02:33:13 72° W 02:37:07 10° N
BREEZE-M DEB (TANK) 4.5 02:18:35 10° WNW 02:34:29 55° N 02:36:23 39° ENE
Cosmos 2219 Rocket 4.3 02:33:09 10° WSW 02:37:46 26° WNW 02:42:25 10° N
IRS-1A Rocket 4.1 02:37:40 51° SE 02:39:05 72° ENE 02:44:36 10° N
BREEZE-M DEB (TANK) 4.2 02:36:33 10° NNW 02:39:37 29° NNE 02:39:39 29° NNE
OBJECT-B 3.5 02:47:28 15° NNW 02:47:28 15° NNW 02:48:05 10° NNW
Cosmos 1980 4.0 02:40:26 10° SSW 02:46:01 67° WNW 02:51:40 10° NNE
USA 234 3.1 02:42:38 26° NE 02:46:40 90° SSE 02:53:13 10° SW
SJ-6B 3.5 02:50:46 56° WNW 02:50:46 56° WNW 02:54:23 10° NNW
USA 238 DEB 4.3 02:44:57 10° SW 02:51:17 52° NW 02:57:56 10° NNE
USA 238 4.3 02:45:03 10° SW 02:51:23 52° NW 02:58:02 10° NNE
Cosmos 1898 Rocket 4.1 02:57:01 10° NNW 03:00:45 46° N 03:00:45 46° N
Ariane Rocket 3.7 03:16:30 50° W 03:16:30 50° W 03:21:24 10° NNW
SJ 16-02 3.4 03:21:04 10° NW 03:24:33 24° W 03:24:33 24° W
CENTAUR R/B 3.9 03:25:29 10° WSW 03:30:48 34° NW 03:37:01 10° NNE
Resurs 01 Rocket 4.3 03:39:27 14° NNW 03:39:27 14° NNW 03:40:03 10° NNW
Cosmos 2237 Rocket 4.3 03:40:57 10° WSW 03:45:31 24° NW 03:50:06 10° N
Cosmos 1943 Rocket 4.3 03:41:36 10° N 03:43:05 18° N 03:43:05 18° N
Cosmos 2278 Rocket 4.0 03:47:21 10° NW 03:51:41 26° W 03:51:41 26° W
USA 234 4.3 09:27:47 10° E 09:33:46 40° NNE 09:33:50 40° NNE
ATLAS 5 CENTAUR R/B 4.1 10:05:29 16° E 10:05:29 16° E 10:06:51 10° ENE
BREEZE-M DEB (TANK) 4.4 10:14:56 74° WNW 10:15:46 84° SW 10:38:21 10° SE
Cosmos 2344 3.5 10:16:44 68° NW 10:16:44 68° NW 10:24:08 10° NNE
USA 238 DEB 4.4 10:18:50 10° NNW 10:25:59 56° NE 10:33:24 10° SE
USA 238 4.5 10:18:56 10° NNW 10:26:06 55° NE 10:33:31 10° SE
OAO 3 Rocket 4.3 10:31:18 40° ESE 10:31:18 40° ESE 10:34:35 10° E
Milstar 3 Cent rocket 3.6 10:31:25 25° SSE 10:31:25 25° SSE 10:33:58 10° ESE
Cosmos 614 Rocket 4.2 10:33:48 64° ESE 10:33:52 64° ESE 10:39:03 10° NNE
Cosmos 2251 Rocket 3.9 10:35:54 58° N 10:35:54 58° N 10:40:14 10° NNE
Cosmos 1709 Rocket 4.2 10:32:08 10° N 10:38:32 73° E 10:44:52 10° SSE
ALOS 3.1 10:35:10 10° NNE 10:39:41 48° E 10:41:06 36° SE
USA 267 4.4 10:39:02 10° NNE 10:44:22 28° NNW 10:45:21 27° NW
PSLV R/B 4.1 10:41:55 10° NNE 10:45:20 53° NNE 10:45:20 53° NNE
PAYLOAD A 4.3 10:41:08 10° N 10:45:38 57° NNW 10:45:38 57° NNW
Cosmos 2360 Rocket 3.5 10:52:22 26° S 10:52:22 26° S 10:54:46 10° S
Cosmos 407 Rocket 4.3 10:47:24 23° SSE 10:50:25 49° ESE 10:55:22 10° NNE
NOSS 3-2 (A) 4.0 10:46:53 10° NW 10:54:42 85° WSW 11:03:25 10° SSE
Cosmos 1484 Rocket 3.3 10:53:02 10° NNE 10:56:41 54° E 10:56:52 53° ESE
Cosmos 2333 4.2 10:51:49 10° NNW 10:57:39 84° ENE 11:03:26 10° SSE
Lacrosse 5 2.1 10:56:27 36° NNW 10:58:27 67° NE 11:03:29 10° SE
Landsat 5 3.5 10:56:58 10° SSE 11:00:44 66° ENE 11:04:36 10° N
Meteor 2-17 Rocket 4.3 10:55:17 10° N 11:01:22 88° WSW 11:07:25 10° S
Delta 2 Rocket 3.7 11:02:24 62° S 11:02:25 62° S 11:07:24 10° ESE
Cosmos 1805 Rocket 3.4 10:59:45 10° N 11:04:14 83° W 11:08:40 10° S
CENTAUR R/B 3.3 10:56:35 10° NNW 11:04:59 80° ENE 11:13:56 10° SE
Cosmos 909 Rocket 4.0 11:05:48 42° SW 11:08:03 66° WNW 11:14:18 10° NNE
Cosmos 2227 Rocket 4.4 11:07:11 10° SSE 11:11:37 24° E 11:16:03 10° NE
CZ-4C R/B 1.9 11:11:02 54° WSW 11:11:55 65° NW 11:17:31 10° NNE
USA 234 3.2 11:10:06 10° SSE 11:16:33 62° SW 11:21:14 20° NW
Cosmos 2333 Rocket 2.1 11:13:23 10° NNW 11:19:10 82° WSW 11:24:56 10° SSE
CZ-2C R/B 3.4 11:15:57 10° N 11:18:58 27° NW 11:18:58 27° NW
Sich 1 2.9 11:15:47 10° NNW 11:20:11 73° W 11:24:31 10° S
Cosmos 2297 Rocket 3.4 11:21:16 10° S 11:26:32 42° ESE 11:31:49 10° NE
Cosmos 1140 Rocket 3.4 11:22:23 14° SSW 11:26:58 87° WNW 11:32:11 10° NNE
Cosmos 1666 Rocket 3.6 11:23:41 10° N 11:28:04 81° E 11:32:29 10° S
NOSS 3-4 (A) 3.4 11:26:24 30° WSW 11:29:13 60° NW 11:35:19 10° NNE
NOSS 3-4 (C) 3.4 11:26:28 30° WSW 11:29:19 60° NW 11:35:25 10° NNE
CBERS 1 LM4 rocket 4.3 11:26:55 10° N 11:31:37 63° WNW 11:35:49 13° SSW
Cosmos 2219 Rocket 2.1 11:26:57 10° NNW 11:32:37 74° WSW 11:38:15 10° SSE
Cosmos 1602 4.1 11:29:56 10° N 11:33:50 65° E 11:37:41 10° SSE
CZ-4B R/B 3.6 11:32:01 10° NNE 11:35:42 81° ESE 11:39:19 10° S
MOS 1 Rocket 3.9 11:31:37 10° SSE 11:35:52 54° ENE 11:40:21 10° N
NOSS 3-2 (C) 4.1 11:29:07 10° NW 11:36:58 76° WSW 11:45:39 10° SSE
SeaSat 1 3.5 11:33:44 10° SE 11:38:25 46° ENE 11:43:08 10° NNW
Cosmos 1023 Rocket 4.4 11:34:03 14° SSW 11:38:35 65° WNW 11:43:44 10° NNE
Meteor 1-26 Rocket 4.2 11:34:00 10° S 11:39:41 82° W 11:45:36 10° N
METEOR-M 4.2 11:36:19 10° N 11:41:31 55° WNW 11:46:42 10° SSW
ATLAS 2AS CENTAUR R/B 3.0 11:36:17 10° SW 11:44:11 77° WNW 11:52:04 10° NNE
H-2A R/B 1.9 11:40:12 10° S 11:44:23 62° WSW 11:48:31 10° NNW
Cosmos 1151 Rocket 3.0 11:40:17 10° SSW 11:44:32 60° W 11:48:48 10° N
CZ-2C R/B 3.8 11:42:44 10° SSW 11:45:32 17° SSE 11:48:23 10° ESE
ATLAS 5 CENTAUR R/B 2.3 11:47:02 26° W 11:48:11 30° NW 11:52:02 10° NNE
Cosmos 1242 Rocket 3.9 11:45:03 10° SSE 11:48:16 39° E 11:51:32 10° NNE
ISS -2.0 11:45:32 11° NNW 11:48:25 30° NNE 11:51:26 10° E
COSMOS 2428 2.7 11:44:52 10° NNW 11:50:30 62° WSW 11:56:07 10° S
NOSS 7 (H) 4.4 11:49:04 21° SW 11:51:19 58° WNW 11:54:21 10° NNE
ADEOS 3.6 11:49:38 10° N 11:54:48 63° WNW 11:59:57 10° SSW
